Location: Bishop�s Knoyle
(51.0728°N, 2.1714°W)
Time: 01:22:50
(UTC+00:00)

ISS - Pass Details

Date: 29 September 2021
Orbit: 417 x 423 km, 51.6° (Epoch: 27 October)

Event Time Altitude Azimuth Distance (km) Brightness Sun altitude
Rises 19:47:48 0° 285° (WNW) 2,368 1.7 -18.9°
Reaches altitude 10° 19:49:56 10° 280° (W) 1,503 0.2 -19.2°
Maximum altitude 19:53:13 50° 204° (SSW) 544 -3.3 -19.7°
Enters shadow 19:53:20 49° 195° (SSW) 547 -3.3 -19.7°
